{"data":{"norad_id":87616,"epoch":"2026-09-18T03:13:53.937120Z","epoch_age_seconds":218740,"freshness":"STALE","line1":"1 87616U          26261.13465205  .00000314  00000+0  12492-2 0  9998","line2":"2 87616  66.0369 319.0832 0625746  18.7832   6.6224 12.47077266571077","mean_motion":12.47077266,"eccentricity":0.0625746,"inclination_deg":66.0369,"raan_deg":319.0832,"arg_perigee_deg":18.7832,"mean_anomaly_deg":6.6224,"bstar":0.0012492,"rev_number":57107,"period_min":115.46999045366,"perigee_km":985.22779249566,"apogee_km":1968.2598429276,"semimajor_km":7854.8808177116,"source":"CELESTRAK","updated_at":"2026-09-20T09:00:32.477268Z"}}